| time (UTC) | temp F | wind direction | speed knots | gust knots | rain 1hr in | rain 24hr in | rain mn in | humidity % | barometer mb |
| 20260906092703 | 56 | 248 | 0.9 | 2.6 | 0.00 | 0.00 | 0.00 | 57 | |
| 20260906091803 | 57 | 232 | 1.7 | 4.3 | 0.00 | 0.00 | 0.00 | 54 | |
| 20260906090903 | 58 | 157 | 0.0 | 2.6 | 0.00 | 0.00 | 0.00 | 55 | |
| 20260906090003 | 58 | 157 | 0.0 | 2.6 | 0.00 | 0.00 | 0.00 | 54 | |
| 20260906085403 | 57 | 157 | 0.0 | 2.6 | 0.00 | 0.00 | 0.00 | 55 | |
| 20260906084503 | 56 | 157 | 0.0 | 1.7 | 0.00 | 0.00 | 0.00 | 55 | |
| 20260906083603 | 56 | 0 | 0.0 | 0.0 | 0.00 | 0.00 | 0.00 | 57 | |
| 20260906082703 | 56 | 0 | 0.0 | 0.0 | 0.00 | 0.00 | 0.00 | 56 | |
| 20260906082012 | 56 | 0 | 0.0 | 0.0 | 0.00 | 0.00 | 0.00 | 57 | |
| 20260906080903 | 56 | 0 | 0.0 | 0.0 | 0.00 | 0.00 | 0.00 | 55 | |
| 20260906080003 | 56 | 0 | 0.0 | 0.0 | 0.00 | 0.00 | 0.00 | 55 | |
| 20260906075403 | 56 | 0 | 0.0 | 0.0 | 0.00 | 0.00 | 0.00 | 54 | |
| 20260906074503 | 57 | 0 | 0.0 | 0.0 | 0.00 | 0.00 | 0.00 | 53 | |
| 20260906073603 | 57 | 0 | 0.0 | 0.0 | 0.00 | 0.00 | 0.00 | 53 | |
| 20260906072703 | 58 | 156 | 0.0 | 0.9 | 0.00 | 0.00 | 0.00 | 51 | |
| 20260906071803 | 58 | 157 | 0.0 | 2.6 | 0.00 | 0.00 | 0.00 | 51 | |
| 20260906070903 | 59 | 157 | 0.0 | 0.9 | 0.00 | 0.00 | 0.00 | 49 | |
| 20260906070003 | 59 | 157 | 0.0 | 0.9 | 0.00 | 0.00 | 0.00 | 50 | |
| 20260906065403 | 59 | 0 | 0.0 | 0.0 | 0.00 | 0.00 | 0.00 | 49 | |
| 20260906064503 | 59 | 157 | 0.0 | 1.7 | 0.00 | 0.00 | 0.00 | 49 | |
| 20260906063603 | 58 | 157 | 0.0 | 0.9 | 0.00 | 0.00 | 0.00 | 49 | |
| 20260906062703 | 59 | 157 | 0.0 | 0.9 | 0.00 | 0.00 | 0.00 | 48 | |
| 20260906061803 | 59 | 204 | 0.0 | 0.9 | 0.00 | 0.00 | 0.00 | 48 | |
| 20260906061113 | 59 | 203 | 0.0 | 0.9 | 0.00 | 0.00 | 0.00 | 48 | |
| 20260906060218 | 60 | 0 | 0.0 | 0.0 | 0.00 | 0.00 | 0.00 | 47 | |
| 20260906055614 | 60 | 0 | 0.0 | 0.0 | 0.00 | 0.00 | 0.00 | 47 | |
| 20260906054503 | 62 | 0 | 0.0 | 0.0 | 0.00 | 0.00 | 0.00 | 45 | |
| 20260906053603 | 63 | 216 | 0.0 | 1.7 | 0.00 | 0.00 | 0.00 | 43 | |
| 20260906052703 | 63 | 220 | 0.0 | 1.7 | 0.00 | 0.00 | 0.00 | 43 | |
| 20260906052013 | 63 | 214 | 0.0 | 0.9 | 0.00 | 0.00 | 0.00 | 42 | |
| 20260906051112 | 64 | 208 | 0.0 | 2.6 | 0.00 | 0.00 | 0.00 | 41 | |
| 20260906050004 | 64 | 217 | 0.9 | 2.6 | 0.00 | 0.00 | 0.00 | 41 | |
| 20260906045403 | 65 | 344 | 0.0 | 1.7 | 0.00 | 0.00 | 0.00 | 40 | |
| 20260906044503 | 66 | 42 | 0.0 | 1.7 | 0.00 | 0.00 | 0.00 | 39 | |
| 20260906043603 | 67 | 156 | 0.9 | 3.5 | 0.00 | 0.00 | 0.00 | 38 | |
| 20260906042703 | 67 | 156 | 0.9 | 3.5 | 0.00 | 0.00 | 0.00 | 37 | |
| 20260906041803 | 68 | 175 | 1.7 | 4.3 | 0.00 | 0.00 | 0.00 | 37 | |
| 20260906040903 | 68 | 187 | 2.6 | 4.3 | 0.00 | 0.00 | 0.00 | 37 | |
| 20260906040003 | 68 | 201 | 2.6 | 5.2 | 0.00 | 0.00 | 0.00 | 37 | |
| 20260906035403 | 68 | 197 | 2.6 | 5.2 | 0.00 | 0.00 | 0.00 | 37 | |
| 20260906034503 | 68 | 268 | 2.6 | 4.3 | 0.00 | 0.00 | 0.00 | 37 | |
| 20260906033603 | 68 | 360 | 2.6 | 6.1 | 0.00 | 0.00 | 0.00 | 37 | |
| 20260906032703 | 69 | 360 | 3.5 | 7.0 | 0.00 | 0.00 | 0.00 | 36 | |
| 20260906031803 | 69 | 306 | 3.5 | 6.1 | 0.00 | 0.00 | 0.00 | 36 | |
| 20260906030903 | 70 | 240 | 3.5 | 6.1 | 0.00 | 0.00 | 0.00 | 36 | |
| 20260906030003 | 70 | 242 | 3.5 | 7.8 | 0.00 | 0.00 | 0.00 | 35 | |
| 20260906025403 | 71 | 234 | 4.3 | 7.8 | 0.00 | 0.00 | 0.00 | 34 | |
| 20260906024503 | 71 | 267 | 3.5 | 7.8 | 0.00 | 0.00 | 0.00 | 34 | |
| 20260906023603 | 71 | 234 | 3.5 | 10.4 | 0.00 | 0.00 | 0.00 | 33 | |
| 20260906022703 | 72 | 238 | 3.5 | 7.8 | 0.00 | 0.00 | 0.00 | 33 | |
| 20260906022014 | 72 | 255 | 2.6 | 5.2 | 0.00 | 0.00 | 0.00 | 32 | |
| 20260906020903 | 73 | 332 | 3.5 | 8.7 | 0.00 | 0.00 | 0.00 | 31 | |
| 20260906020212 | 74 | 360 | 5.2 | 12.2 | 0.00 | 0.00 | 0.00 | 31 | |
| 20260906015614 | 75 | 360 | 5.2 | 13.0 | 0.00 | 0.00 | 0.00 | 30 | |
| 20260906014503 | 76 | 216 | 6.1 | 13.9 | 0.00 | 0.00 | 0.00 | 30 | |
| 20260906013603 | 76 | 347 | 6.1 | 18.2 | 0.00 | 0.00 | 0.00 | 30 | |
| 20260906012912 | 77 | 350 | 6.1 | 13.9 | 0.00 | 0.00 | 0.00 | 29 | |
| 20260906012014 | 78 | 353 | 7.8 | 15.6 | 0.00 | 0.00 | 0.00 | 28 | |
| 20260906010903 | 78 | 312 | 6.1 | 13.9 | 0.00 | 0.00 | 0.00 | 28 | |
| 20260906010003 | 79 | 324 | 7.8 | 15.6 | 0.00 | 0.00 | 0.00 | 27 | |
| 20260906005614 | 79 | 302 | 7.8 | 15.6 | 0.00 | 0.00 | 0.00 | 28 | |
| 20260906004503 | 80 | 210 | 6.1 | 13.9 | 0.00 | 0.00 | 0.00 | 27 | |
| 20260906003603 | 80 | 190 | 6.1 | 14.8 | 0.00 | 0.00 | 0.00 | 27 | |
| 20260906002703 | 80 | 206 | 7.8 | 17.4 | 0.00 | 0.00 | 0.00 | 27 | |
| 20260906001803 | 80 | 327 | 7.8 | 18.2 | 0.00 | 0.00 | 0.00 | 27 | |
| 20260906000903 | 80 | 360 | 7.8 | 18.2 | 0.00 | 0.00 | 0.00 | 26 | |
| 20260906000003 | 80 | 359 | 8.7 | 15.6 | 0.00 | 0.00 | 0.00 | 27 | |
| 20260905235403 | 81 | 359 | 8.7 | 16.5 | 0.00 | 0.00 | 0.00 | 27 | |
| 20260905234503 | 81 | 360 | 8.7 | 17.4 | 0.00 | 0.00 | 0.00 | 27 | |
| 20260905233603 | 81 | 360 | 9.6 | 19.1 | 0.00 | 0.00 | 0.00 | 27 | |
| 20260905232703 | 81 | 360 | 11.3 | 21.7 | 0.00 | 0.00 | 0.00 | 26 | |
| 20260905231803 | 81 | 360 | 9.6 | 17.4 | 0.00 | 0.00 | 0.00 | 26 | |
| 20260905230903 | 81 | 360 | 10.4 | 20.0 | 0.00 | 0.00 | 0.00 | 26 | |
| 20260905230213 | 81 | 360 | 9.6 | 19.1 | 0.00 | 0.00 | 0.00 | 26 | |
| 20260905225403 | 82 | 360 | 8.7 | 18.2 | 0.00 | 0.00 | 0.00 | 26 | |
| 20260905224712 | 82 | 360 | 10.4 | 19.1 | 0.00 | 0.00 | 0.00 | 26 | |
| 20260905223814 | 82 | 360 | 10.4 | 21.7 | 0.00 | 0.00 | 0.00 | 24 | |
| 20260905222703 | 82 | 360 | 12.2 | 21.7 | 0.00 | 0.00 | 0.00 | 25 | |
| 20260905221803 | 83 | 360 | 8.7 | 17.4 | 0.00 | 0.00 | 0.00 | 24 | |
| 20260905220903 | 83 | 359 | 8.7 | 26.1 | 0.00 | 0.00 | 0.00 | 25 | |
| 20260905220213 | 82 | 353 | 9.6 | 20.0 | 0.00 | 0.00 | 0.00 | 25 | |
| 20260905215403 | 82 | 328 | 9.6 | 20.9 | 0.00 | 0.00 | 0.00 | 27 | |
| 20260905214503 | 82 | 341 | 8.7 | 17.4 | 0.00 | 0.00 | 0.00 | 27 | |
| 20260905213603 | 82 | 312 | 8.7 | 16.5 | 0.00 | 0.00 | 0.00 | 27 | |
| 20260905212703 | 82 | 213 | 9.6 | 20.9 | 0.00 | 0.00 | 0.00 | 27 | |
| 20260905212014 | 82 | 197 | 10.4 | 20.9 | 0.00 | 0.00 | 0.00 | 27 | |
| 20260905210903 | 82 | 191 | 11.3 | 22.6 | 0.00 | 0.00 | 0.00 | 25 | |
| 20260905210003 | 82 | 182 | 10.4 | 24.3 | 0.00 | 0.00 | 0.00 | 26 | |
| 20260905205403 | 82 | 188 | 9.6 | 24.3 | 0.00 | 0.00 | 0.00 | 26 | |
| 20260905204714 | 82 | 187 | 8.7 | 16.5 | 0.00 | 0.00 | 0.00 | 27 | |
| 20260905203603 | 82 | 289 | 10.4 | 20.0 | 0.00 | 0.00 | 0.00 | 27 | |
| 20260905202703 | 81 | 286 | 10.4 | 20.0 | 0.00 | 0.00 | 0.00 | 27 | |
| 20260905201803 | 81 | 359 | 12.2 | 26.1 | 0.00 | 0.00 | 0.00 | 27 | |
| 20260905201113 | 81 | 345 | 12.2 | 25.2 | 0.00 | 0.00 | 0.00 | 27 | |
| 20260905200003 | 81 | 281 | 12.2 | 20.9 | 0.00 | 0.00 | 0.00 | 27 | |
| 20260905195403 | 81 | 293 | 11.3 | 26.9 | 0.00 | 0.00 | 0.00 | 27 | |
| 20260905194503 | 81 | 292 | 10.4 | 20.9 | 0.00 | 0.00 | 0.00 | 28 | |
| 20260905193603 | 80 | 203 | 11.3 | 23.5 | 0.00 | 0.00 | 0.00 | 27 | |
| 20260905192914 | 80 | 194 | 10.4 | 20.9 | 0.00 | 0.00 | 0.00 | 26 | |
| 20260905192013 | 80 | 195 | 10.4 | 24.3 | 0.00 | 0.00 | 0.00 | 28 | |
| 20260905190903 | 79 | 192 | 11.3 | 24.3 | 0.00 | 0.00 | 0.00 | 27 | |
| 20260905190003 | 79 | 189 | 11.3 | 24.3 | 0.00 | 0.00 | 0.00 | 26 | |
| 20260905185403 | 79 | 187 | 12.2 | 26.9 | 0.00 | 0.00 | 0.00 | 29 | |
| 20260905184713 | 78 | 185 | 13.0 | 27.8 | 0.00 | 0.00 | 0.00 | 29 | |
| 20260905183603 | 78 | 180 | 11.3 | 22.6 | 0.00 | 0.00 | 0.00 | 30 | |
| 20260905182703 | 78 | 180 | 8.7 | 19.1 | 0.00 | 0.00 | 0.00 | 29 | |
| 20260905181803 | 78 | 186 | 8.7 | 17.4 | 0.00 | 0.00 | 0.00 | 30 | |
| 20260905180903 | 77 | 190 | 10.4 | 22.6 | 0.00 | 0.00 | 0.00 | 30 | |
| 20260905180003 | 78 | 183 | 8.7 | 18.2 | 0.00 | 0.00 | 0.00 | 28 | |
| 20260905175404 | 77 | 176 | 7.8 | 16.5 | 0.00 | 0.00 | 0.00 | 30 | |
| 20260905174503 | 77 | 188 | 10.4 | 21.7 | 0.00 | 0.00 | 0.00 | 29 | |
| 20260905173603 | 76 | 185 | 10.4 | 20.9 | 0.00 | 0.00 | 0.00 | 29 | |
| 20260905172913 | 76 | 187 | 8.7 | 20.9 | 0.00 | 0.00 | 0.00 | 29 | |
| 20260905171803 | 76 | 187 | 10.4 | 18.2 | 0.00 | 0.00 | 0.00 | 30 | |
| 20260905170903 | 76 | 186 | 9.6 | 20.0 | 0.00 | 0.00 | 0.00 | 32 | |
| 20260905170003 | 75 | 185 | 8.7 | 19.1 | 0.00 | 0.00 | 0.00 | 32 | |
| 20260905165403 | 75 | 189 | 7.8 | 17.4 | 0.00 | 0.00 | 0.00 | 32 | |
| 20260905164503 | 75 | 178 | 8.7 | 17.4 | 0.00 | 0.00 | 0.00 | 31 | |
| 20260905163814 | 75 | 179 | 7.8 | 14.8 | 0.00 | 0.00 | 0.00 | 32 | |
| 20260905162913 | 74 | 177 | 5.2 | 13.0 | 0.00 | 0.00 | 0.00 | 32 | |
| 20260905161803 | 74 | 176 | 7.0 | 14.8 | 0.00 | 0.00 | 0.00 | 31 | |
| 20260905160903 | 72 | 187 | 6.1 | 11.3 | 0.00 | 0.00 | 0.00 | 31 | |
| 20260905160003 | 71 | 183 | 6.1 | 12.2 | 0.00 | 0.00 | 0.00 | 31 | |
| 20260905155403 | 70 | 170 | 5.2 | 12.2 | 0.00 | 0.00 | 0.00 | 34 | |
| 20260905154503 | 68 | 184 | 4.3 | 11.3 | 0.00 | 0.00 | 0.00 | 32 | |
| 20260905153603 | 68 | 185 | 4.3 | 9.6 | 0.00 | 0.00 | 0.00 | 30 | |
| 20260905152703 | 68 | 193 | 4.3 | 9.6 | 0.00 | 0.00 | 0.00 | 31 | |
| 20260905151803 | 68 | 189 | 3.5 | 8.7 | 0.00 | 0.00 | 0.00 | 31 | |
| 20260905150903 | 66 | 183 | 0.9 | 4.3 | 0.00 | 0.00 | 0.00 | 35 | |
| 20260905150003 | 63 | 198 | 0.0 | 0.9 | 0.00 | 0.00 | 0.00 | 42 | |
| 20260905145403 | 61 | 198 | 0.0 | 1.7 | 0.00 | 0.00 | 0.00 | 43 | |
| 20260905144503 | 59 | 198 | 0.0 | 0.9 | 0.00 | 0.00 | 0.00 | 47 | |
| 20260905143603 | 58 | 198 | 0.0 | 0.9 | 0.00 | 0.00 | 0.00 | 44 | |
| 20260905142703 | 59 | 198 | 0.0 | 1.7 | 0.00 | 0.00 | 0.00 | 43 | |
| 20260905141803 | 58 | 193 | 1.7 | 4.3 | 0.00 | 0.00 | 0.00 | 39 | |
| 20260905140903 | 57 | 188 | 0.9 | 3.5 | 0.00 | 0.00 | 0.00 | 39 | |
| 20260905140004 | 56 | 188 | 0.0 | 1.7 | 0.00 | 0.00 | 0.00 | 40 | |
| 20260905135403 | 56 | 188 | 0.0 | 2.6 | 0.00 | 0.00 | 0.00 | 41 | |
| 20260905134504 | 56 | 188 | 0.9 | 2.6 | 0.00 | 0.00 | 0.00 | 41 | |
| 20260905133603 | 57 | 188 | 0.9 | 2.6 | 0.00 | 0.00 | 0.00 | 39 | |
| 20260905132703 | 57 | 188 | 1.7 | 3.5 | 0.00 | 0.00 | 0.00 | 38 | |
| 20260905131803 | 57 | 189 | 0.9 | 2.6 | 0.00 | 0.00 | 0.00 | 39 | |
| 20260905131112 | 57 | 190 | 0.9 | 3.5 | 0.00 | 0.00 | 0.00 | 38 | |
| 20260905130003 | 58 | 182 | 1.7 | 3.5 | 0.00 | 0.00 | 0.00 | 37 | |
| 20260905125613 | 58 | 182 | 1.7 | 4.3 | 0.00 | 0.00 | 0.00 | 37 | |
| 20260905124503 | 58 | 183 | 1.7 | 3.5 | 0.00 | 0.00 | 0.00 | 37 | |
| 20260905123603 | 58 | 183 | 1.7 | 3.5 | 0.00 | 0.00 | 0.00 | 38 | |
| 20260905122913 | 58 | 183 | 0.9 | 3.5 | 0.00 | 0.00 | 0.00 | 38 | |
| 20260905121803 | 59 | 182 | 1.7 | 4.3 | 0.00 | 0.00 | 0.00 | 39 | |
| 20260905120903 | 59 | 184 | 2.6 | 5.2 | 0.00 | 0.00 | 0.00 | 38 | |
| 20260905120004 | 60 | 184 | 1.7 | 4.3 | 0.00 | 0.00 | 0.00 | 38 | |
| 20260905115403 | 60 | 181 | 1.7 | 3.5 | 0.00 | 0.00 | 0.00 | 38 | |
| 20260905114503 | 61 | 180 | 0.9 | 2.6 | 0.00 | 0.00 | 0.00 | 38 | |
| 20260905113603 | 61 | 201 | 1.7 | 3.5 | 0.00 | 0.00 | 0.00 | 37 | |
| 20260905112703 | 61 | 222 | 1.7 | 4.3 | 0.00 | 0.00 | 0.00 | 38 | |
| 20260905111803 | 62 | 213 | 1.7 | 5.2 | 0.00 | 0.00 | 0.00 | 37 | |
| 20260905110903 | 62 | 229 | 1.7 | 5.2 | 0.00 | 0.00 | 0.00 | 37 | |
| 20260905110003 | 62 | 236 | 1.7 | 4.3 | 0.00 | 0.00 | 0.00 | 36 | |
| 20260905105403 | 62 | 232 | 1.7 | 4.3 | 0.00 | 0.00 | 0.00 | 36 | |
| 20260905104503 | 62 | 217 | 0.9 | 3.5 | 0.00 | 0.00 | 0.00 | 36 | |
| 20260905103603 | 62 | 228 | 0.9 | 4.3 | 0.00 | 0.00 | 0.00 | 36 | |
| 20260905102912 | 62 | 241 | 1.7 | 4.3 | 0.00 | 0.00 | 0.00 | 36 | |
| 20260905101803 | 62 | 253 | 2.6 | 5.2 | 0.00 | 0.00 | 0.00 | 36 | |
| 20260905100903 | 63 | 248 | 2.6 | 8.7 | 0.00 | 0.00 | 0.00 | 35 | |
| 20260905100003 | 63 | 240 | 2.6 | 8.7 | 0.00 | 0.00 | 0.00 | 34 | |
| 20260905095403 | 64 | 223 | 1.7 | 7.8 | 0.00 | 0.00 | 0.00 | 34 | |
| 20260905094503 | 64 | 233 | 1.7 | 10.4 | 0.00 | 0.00 | 0.00 | 34 | |
| 20260905093603 | 65 | 214 | 2.6 | 8.7 | 0.00 | 0.00 | 0.00 | 33 |